Lapse_Rate
0.3 0.3 0.7 1.2 1.9 3.1 4.0 4.2 5.0 5.2 5.0 5.2 4.5 4.2 3.8 3.5 2.9 3.2 3.2 4.0 4.9 5.7 6.1 6.1 5.6 4.2 3.7 3.0 2.5 2.8 3.1 2.8 2.9 3.0 3.3 3.2 3.1 3.2 2.9 3.0 3.2 3.7 4.4
-0.0 -0.1 0.1 0.8 1.4 2.5 3.3 3.8 4.0 4.1 4.3 4.4 4.2 4.2 3.5 3.3 2.9 2.8 2.8 2.6 2.9 4.1 4.6 5.3 4.9 4.2 3.4 2.4 2.7 2.1 2.2 2.3 2.5 2.6 3.8 4.0 3.4 3.3 3.3 3.0 3.1 3.3 3.9
0.2 -0.2 -0.4 0.0 0.4 1.7 2.6 3.0 2.8 3.2 2.8 3.8 3.2 3.4 3.3 3.0 3.2 2.9 2.8 2.5 2.1 2.5 3.8 4.2 3.6 4.9 3.6 3.1 2.8 2.5 2.7 2.8 2.8 2.5 2.5 2.9 3.0 3.2 2.8 3.0 2.6 2.8 3.2
0.5 -0.5 -1.1 -1.1 0.2 1.3 1.8 1.5 1.7 1.6 1.8 2.5 2.1 2.4 3.2 2.7 2.6 2.5 2.4 2.7 2.1 2.2 2.8 2.9 3.4 3.7 3.6 3.8 3.9 3.6 3.4 3.3 3.2 2.9 2.8 2.6 2.5 2.5 2.8 3.1 3.1 3.2 3.8
0.3 -0.3 -0.7 -0.4 0.7 0.9 0.9 1.6 0.8 1.9 2.4 1.9 2.6 2.5 2.7 2.3 2.9 2.8 2.3 2.7 2.3 2.1 2.2 2.1 2.5 2.5 2.4 2.8 3.2 3.5 3.5 3.4 3.2 2.7 2.4 2.2 2.2 2.1 2.2 2.3 2.4 2.6 2.9
0.2 -0.1 -0.2 0.1 0.8 0.6 0.9 1.2 1.5 0.6 1.6 1.9 2.7 1.8 2.0 1.8 2.1 2.8 2.3 1.7 0.7 0.0 -0.3 -0.6 -0.4 1.5 2.0 1.9 2.3 3.1 3.5 3.3 2.6 2.6 2.3 2.3 2.4 2.1 2.1 2.2 2.2 2.4 2.5
0.4 0.3 0.3 0.7 1.0 1.3 1.5 1.7 1.0 1.6 1.5 1.9 2.2 3.1 3.0 2.9 2.1 1.6 1.6 1.5 1.2 0.0 -0.6 -0.9 -0.9 -1.2 -0.9 0.4 1.2 1.7 2.6 3.2 3.1 2.7 1.9 2.2 2.0 2.1 2.2 2.2 1.9 2.2 2.2
0.6 0.4 0.1 -0.0 0.9 1.2 1.3 1.7 1.9 1.4 1.2 1.0 2.9 3.3 5.2 4.5 2.8 2.1 0.9 0.5 0.1 0.1 -0.0 -0.4 -0.5 -0.9 -1.1 -1.0 -0.0 0.3 1.2 2.0 2.2 1.9 1.4 1.5 1.7 2.1 2.2 2.1 2.0 2.0 1.9
0.8 0.6 0.4 -0.1 -0.1 -0.1 0.7 1.1 1.6 2.4 2.5 1.1 1.7 3.0 5.0 5.0 4.0 3.7 1.8 0.7 0.3 -0.2 -0.2 -0.1 -0.3 -0.7 -0.6 -0.7 -0.4 0.2 0.0 0.5 1.1 1.0 1.2 1.4 1.7 1.0 1.1 1.4 1.3 1.4 1.9
1.0 1.2 1.1 0.7 0.5 0.4 0.6 0.5 0.9 1.4 1.9 2.6 1.7 1.1 0.9 2.1 3.8 4.7 3.1 1.9 1.5 0.7 0.0 0.0 -0.5 -0.5 -0.4 -0.2 0.6 0.7 -0.5 -0.8 -0.1 0.5 0.8 0.7 0.4 0.5 0.3 0.6 1.2 1.8 2.3
1.0 1.4 1.4 1.1 0.5 0.2 0.3 1.0 0.8 0.7 1.1 2.0 1.8 1.3 1.0 1.4 1.0 1.4 4.1 2.1 1.7 1.1 0.3 -0.2 -0.3 -0.2 0.3 0.3 0.2 0.5 -0.5 -0.6 -0.5 -0.1 -0.2 -0.1 -0.4 -0.0 0.3 0.7 2.6 5.8 6.6
-0.0 0.8 1.0 0.8 0.6 0.3 0.4 0.2 0.4 0.9 0.5 0.4 0.8 1.1 1.7 2.9 2.1 1.0 0.9 2.5 2.2 2.0 1.5 0.7 0.7 0.6 1.0 1.4 1.0 0.3 -0.3 -0.3 -0.2 0.1 -0.5 -0.5 -0.4 0.1 1.2 3.9 6.3 5.9 4.2
0.1 0.4 0.2 0.1 0.0 0.6 0.2 0.1 -0.0 0.1 0.5 0.6 0.6 0.4 0.1 0.5 0.5 0.5 0.5 0.4 2.9 2.5 2.4 1.4 0.9 0.8 1.0 1.3 1.1 1.0 0.4 -0.0 -0.4 -0.3 -0.4 -0.0 0.7 1.7 3.1 5.3 7.7 4.1 5.4
0.5 0.5 0.1 0.3 0.6 0.4 -0.0 -0.2 -0.8 -0.8 -0.3 -0.3 -0.0 0.1 -0.5 -0.8 -0.4 -0.0 0.6 0.2 2.6 3.9 3.3 2.1 1.6 1.3 1.5 1.4 1.3 1.2 0.7 1.0 -0.1 -0.8 -0.5 0.1 1.4 2.6 6.9 5.4 6.4 5.8 6.5
1.0 0.3 0.5 0.3 0.1 -0.1 -0.0 -0.4 -0.6 -0.3 -0.2 -0.1 -0.2 -0.3 -0.6 -1.2 -1.3 -1.1 -0.5 0.4 1.1 2.7 4.1 3.0 2.5 1.4 1.7 2.1 1.6 1.2 1.5 1.0 0.4 0.1 0.3 0.8 2.2 3.5 5.3 6.1 6.8 6.9 8.2
1.0 0.6 0.7 0.8 0.4 0.2 0.1 0.3 0.4 0.4 0.3 -0.2 -0.2 -0.1 -0.3 -0.9 -1.2 -1.2 -1.0 -0.7 0.4 0.8 0.8 1.8 1.5 1.5 2.2 3.2 2.2 2.4 3.0 2.2 1.5 1.8 1.9 1.9 3.0 3.3 5.3 7.5 5.6 8.3 8.3
0.6 0.8 0.9 0.7 0.7 0.9 0.8 0.7 0.7 1.0 1.2 1.6 1.6 1.0 0.3 0.2 -0.5 -0.8 -0.8 -0.7 -0.5 -0.2 -0.4 -0.1 0.8 1.2 1.4 3.3 1.8 2.8 3.3 2.9 4.5 3.8 3.8 3.5 3.4 3.6 7.1 6.4 6.6 7.5 6.8
1.1 1.1 0.8 0.8 1.0 1.3 1.2 2.2 2.3 2.0 1.9 2.1 2.2 2.0 1.7 1.8 0.8 0.2 0.3 -0.2 -0.2 -0.0 -0.8 -0.9 0.1 1.4 1.7 2.4 2.6 2.6 4.3 4.6 5.0 7.4 5.9 4.5 5.4 5.7 7.3 8.6 8.0 5.6 5.8
1.3 1.5 1.7 1.4 1.4 1.5 1.8 2.3 2.1 2.1 1.9 1.3 1.3 1.3 1.2 1.5 0.9 1.0 1.4 1.7 0.9 0.6 0.2 0.2 -0.2 0.9 0.9 2.3 2.1 2.3 2.6 3.1 4.6 6.4 4.4 5.4 5.6 6.3 6.6 8.7 7.4 4.8 5.3
1.5 1.7 1.8 1.6 2.1 2.0 1.9 2.1 1.9 1.5 1.3 2.2 1.0 0.7 0.8 1.1 1.5 2.0 3.7 3.3 1.3 0.7 1.2 0.9 0.9 0.9 1.7 1.4 3.5 3.3 2.6 2.7 3.5 4.4 4.6 5.0 5.5 5.3 6.3 7.1 6.7 7.2 6.5
1.4 1.6 2.0 1.8 2.0 1.9 2.1 1.0 1.4 1.3 1.4 1.8 1.4 1.3 0.6 0.7 0.8 1.6 4.0 4.0 2.7 1.4 1.9 1.6 1.4 1.4 1.3 1.6 2.8 3.2 3.5 3.0 2.5 3.1 4.6 5.6 4.4 4.4 5.1 5.6 5.8 7.9 8.0
0.4 0.8 1.1 1.6 1.6 1.5 1.7 1.5 1.5 1.2 1.8 2.5 2.2 2.0 1.9 1.9 1.5 2.9 4.7 3.5 3.0 2.3 2.0 2.1 1.5 1.9 1.0 1.5 1.6 2.9 3.4 3.6 4.3 3.1 5.3 4.8 4.9 4.4 4.7 5.0 7.2 7.2 7.6
0.2 0.2 0.7 0.8 0.9 1.0 2.4 2.1 1.5 1.6 2.3 2.7 2.8 2.8 2.3 1.6 2.2 2.8 2.8 2.1 2.4 2.2 2.6 2.1 1.7 0.9 0.1 0.3 1.8 2.7 3.5 3.5 2.7 2.5 5.3 4.4 4.4 4.2 3.7 4.8 5.3 5.1 5.6
0.6 0.9 1.0 1.4 1.7 2.3 2.6 2.3 1.9 1.9 2.6 2.6 2.3 2.0 1.4 1.9 2.2 2.2 1.4 0.8 0.7 1.0 0.5 0.4 0.3 -0.1 -0.2 0.4 2.1 3.0 2.7 1.3 1.3 1.5 2.1 4.3 3.4 3.5 2.8 2.9 4.5 4.4 4.3
1.1 1.3 1.8 2.3 2.9 2.9 3.4 3.2 2.6 2.6 2.5 2.3 2.2 2.0 2.0 2.6 2.3 2.4 1.2 1.1 1.4 0.8 1.8 0.6 0.6 0.7 0.2 0.8 1.7 2.1 2.1 2.5 1.3 1.2 -0.6 2.2 2.3 3.9 2.6 2.6 2.7 3.2 3.4
1.4 1.9 2.0 2.5 3.7 3.9 4.3 4.1 3.0 2.7 2.4 2.8 3.4 3.8 3.7 2.5 3.3 2.1 1.3 1.6 0.3 -0.8 -0.6 -1.5 -2.9 -3.3 -2.5 -0.2 0.8 1.1 3.5 2.4 -0.7 1.2 -0.5 2.2 2.3 3.1 4.1 3.7 3.5 2.9 2.5
Wind_Speed
3 5 4 3 3 1 2 3 4 4 5 7 9 10 11 11 11 13 16 24 22 21 23 23 22 22 22 21 21 20 22 21 20 22 22 21 21 19 20 18 17 18 10
5 4 3 2 3 3 4 3 3 5 4 7 5 7 10 12 13 14 15 22 28 25 25 23 21 20 20 20 18 19 19 17 17 17 18 18 19 20 20 20 19 20 17
5 5 3 3 3 4 5 7 6 7 5 6 5 5 9 12 12 14 15 16 23 26 23 20 22 18 21 19 18 17 16 16 17 17 17 16 16 16 16 17 18 19 19
5 6 3 3 5 5 5 4 3 4 4 4 4 4 6 11 12 14 16 14 16 18 19 21 20 19 19 17 16 16 16 16 17 17 16 16 16 16 16 16 16 15 16
4 4 3 4 6 5 4 2 3 2 3 4 6 6 6 6 10 12 15 15 15 17 17 21 20 21 20 19 18 17 16 17 17 17 17 17 17 17 17 18 17 17 17
5 5 5 4 4 2 2 2 3 4 2 4 7 8 7 7 11 9 12 15 16 16 16 15 15 17 19 19 19 17 17 17 18 18 19 19 19 19 18 19 19 18 19
5 5 3 3 2 1 1 2 2 4 2 3 5 7 7 8 9 7 12 12 14 13 15 14 13 14 14 19 18 17 16 16 17 18 18 18 19 18 18 19 20 20 19
3 3 3 2 2 1 1 1 2 2 2 3 3 3 3 3 6 7 7 8 10 11 13 14 14 14 16 16 17 16 15 15 15 16 16 17 17 19 18 17 18 19 19
1 3 3 4 4 3 2 1 2 2 2 1 4 2 3 3 4 4 6 6 7 7 11 12 13 14 15 16 15 15 17 17 17 16 17 17 17 19 19 19 20 20 20
0 1 3 4 3 2 2 3 3 3 3 4 0 2 2 3 3 3 3 5 5 6 8 9 10 12 14 15 15 15 16 15 16 16 17 19 20 21 21 22 22 21 21
2 2 3 3 3 3 3 3 3 4 3 3 3 2 2 3 3 3 4 3 4 4 7 8 9 9 11 13 14 15 15 15 15 16 18 20 22 23 23 22 21 19 19
2 3 4 3 3 3 3 3 2 2 4 4 3 3 3 3 3 3 3 3 5 3 4 7 7 7 8 11 12 14 14 15 17 18 20 22 23 23 22 20 19 20 21
3 5 5 5 3 4 4 3 3 3 2 2 4 3 2 3 3 3 3 3 3 2 2 3 4 5 6 8 11 11 14 16 19 21 23 23 22 20 19 19 20 22 20
3 4 5 5 5 8 6 4 2 3 3 3 4 3 2 2 2 3 4 6 3 3 2 4 1 3 5 8 11 10 12 15 18 21 22 23 20 20 19 20 21 21 21
3 5 7 5 6 5 5 5 3 4 4 3 4 4 3 2 2 2 3 4 7 5 3 4 3 3 5 8 10 9 10 14 16 19 20 20 20 19 20 20 20 21 22
6 5 6 6 6 5 5 4 3 3 4 3 3 4 3 2 3 3 3 3 3 4 4 2 2 4 5 10 10 8 10 12 14 17 19 18 18 19 20 18 21 20 22
6 7 7 6 6 6 6 5 5 5 5 3 2 4 5 3 2 2 2 3 4 3 6 3 3 4 3 9 8 10 11 9 9 14 15 16 17 18 17 18 20 19 22
5 5 5 6 6 5 5 4 4 5 6 5 4 4 4 4 4 3 2 3 3 3 4 12 5 3 3 8 8 7 6 7 6 14 16 17 17 15 16 17 18 19 22
4 5 6 7 7 7 6 5 6 6 6 6 5 5 5 4 3 1 1 3 3 5 5 7 5 2 2 7 4 6 4 6 9 13 16 15 15 15 15 16 20 21 20
5 6 5 5 5 7 7 7 8 7 7 6 5 6 5 4 3 2 3 4 5 6 8 7 6 4 2 2 3 4 3 3 3 9 14 13 13 16 16 16 20 22 19
5 5 5 5 6 7 6 10 8 8 7 6 5 5 4 6 5 4 3 0 5 4 6 6 5 3 4 4 6 3 3 4 4 4 9 9 12 12 14 15 17 21 21
5 5 6 7 7 5 15 14 12 8 7 7 7 7 8 10 9 6 5 4 2 6 5 4 3 5 5 4 4 6 6 4 3 3 5 6 10 10 12 15 17 19 22
5 6 6 7 6 6 14 14 15 7 8 7 8 7 6 6 8 8 12 12 14 14 7 4 5 3 5 6 7 6 6 3 3 3 7 5 8 7 10 14 16 16 19
5 5 6 7 7 6 14 15 15 7 7 7 7 6 6 5 3 4 6 8 8 8 10 9 5 5 6 10 6 5 6 7 6 5 1 3 3 5 7 11 14 15 15
4 3 4 7 7 7 15 16 12 7 8 7 7 7 6 5 7 8 8 9 8 7 16 17 14 11 12 11 9 10 7 7 2 1 3 3 2 2 3 8 11 14 16
4 4 5 4 8 7 14 14 11 6 7 6 5 5 10 4 9 11 7 7 8 5 6 5 8 16 17 11 7 3 4 3 3 2 0 3 3 3 2 2 12 12 12
Wind_Direction
144 135 132 130 118 88 48 29 59 85 82 91 95 109 104 93 83 82 83 94 92 99 102 102 95 88 84 75 72 70 66 61 59 58 53 49 48 44 41 38 33 30 353
154 141 131 134 124 124 109 80 59 73 52 82 63 95 107 104 101 96 93 82 84 82 88 89 89 87 84 79 69 67 62 57 53 46 44 43 42 41 37 36 31 28 21
152 146 147 130 134 127 118 101 73 77 75 61 75 67 103 102 99 99 86 80 80 79 81 87 86 86 81 77 70 64 60 56 52 49 44 35 33 32 29 24 21 17 11
167 157 148 141 143 130 124 106 95 74 80 78 66 38 62 80 86 87 87 86 83 82 78 83 86 81 75 70 69 64 59 54 51 46 41 34 30 28 26 22 17 7 358
131 143 147 139 142 125 106 114 69 91 101 97 92 77 61 70 78 86 82 84 78 82 84 81 77 74 69 61 56 52 51 50 47 45 41 36 32 30 28 24 18 10 6
59 89 97 105 111 88 93 91 108 55 87 104 93 82 76 71 70 77 86 84 75 72 77 74 64 69 66 61 53 47 46 45 45 43 38 37 34 29 26 25 21 15 8
52 72 73 69 70 111 147 130 98 109 80 144 101 84 61 66 69 62 71 83 83 80 75 75 74 72 67 63 58 50 48 47 45 41 37 32 26 23 21 18 15 11 7
90 113 117 100 113 95 90 155 99 113 113 224 133 127 148 97 57 61 69 77 68 77 69 65 67 66 63 57 56 55 53 52 49 46 41 36 34 29 22 16 10 5 1
75 134 146 161 163 145 174 181 174 155 154 235 276 145 150 169 125 58 63 78 83 77 82 77 68 65 67 67 59 52 53 49 50 46 43 40 39 30 23 15 8 0 351
79 167 170 173 173 157 171 177 170 180 152 182 178 13 17 126 152 150 85 76 90 88 86 86 83 78 79 73 66 62 56 49 48 46 46 43 33 25 19 13 5 360 357
198 191 191 175 170 169 161 190 174 191 182 171 167 148 95 55 86 137 151 143 87 80 88 87 82 79 89 90 74 69 60 54 53 53 49 42 33 24 18 12 4 358 356
209 197 171 177 181 182 179 163 157 214 194 167 165 175 173 170 171 146 123 143 134 116 99 89 79 73 80 78 80 78 67 62 57 53 49 44 38 28 19 9 3 2 5
208 216 186 177 173 187 163 147 137 127 191 192 172 183 182 168 149 129 113 132 143 144 134 92 93 88 91 88 82 76 72 67 65 58 51 44 37 26 19 11 6 13 10
198 182 203 197 201 173 160 150 117 125 130 130 135 135 123 139 160 157 146 146 129 145 151 141 134 108 109 115 97 92 83 68 64 61 53 45 35 27 17 15 14 17 18
207 186 193 190 190 182 163 157 149 149 140 138 131 129 117 101 81 133 142 149 142 153 145 170 147 152 122 113 114 100 96 82 71 62 58 52 39 30 18 16 18 23 25
206 182 190 177 171 171 169 154 142 136 128 138 131 116 102 100 99 93 118 119 121 129 128 139 136 141 145 134 116 99 95 92 81 67 56 53 44 35 23 15 24 26 30
197 196 187 180 183 173 166 152 144 141 135 129 106 118 110 99 91 97 99 112 127 119 123 116 107 121 110 135 112 111 98 83 87 78 66 54 51 41 28 24 28 34 36
197 196 175 173 164 155 146 152 150 142 135 123 113 102 99 100 70 48 41 87 114 112 119 138 140 129 126 142 131 107 100 77 92 91 71 56 52 47 33 29 30 40 41
204 184 173 174 166 160 149 132 118 106 93 94 93 90 80 83 83 12 12 153 122 112 103 137 129 122 116 140 108 98 96 80 70 90 75 62 49 48 40 32 33 41 42
186 184 176 164 148 135 126 118 114 105 90 90 88 94 81 73 57 11 267 208 127 112 116 121 111 121 131 119 137 135 110 72 84 77 81 66 59 48 40 31 37 40 44
165 147 129 113 125 124 133 126 119 110 118 94 66 67 80 93 76 296 262 249 129 115 126 121 128 138 144 152 169 154 127 122 71 71 91 66 57 46 35 28 39 37 44
90 100 107 120 121 111 127 127 126 126 120 117 109 83 65 65 74 69 40 60 105 142 135 131 140 159 154 149 146 158 149 151 136 41 103 69 62 52 34 34 39 40 39
102 94 97 104 96 114 133 134 129 121 125 123 124 119 108 79 75 78 72 69 63 65 75 122 153 153 148 162 151 156 157 136 123 123 126 81 53 65 34 36 38 43 44
111 117 112 111 121 133 141 135 121 117 116 117 122 112 106 109 96 124 107 81 64 64 66 76 92 129 122 147 147 140 140 115 106 84 58 114 61 73 47 41 41 44 44
114 115 120 123 125 143 149 143 125 122 116 114 113 117 126 143 167 150 117 103 101 77 89 86 77 130 129 144 132 127 139 137 118 100 9 108 132 124 51 39 41 48 49
98 109 103 117 147 146 158 149 124 120 117 118 112 131 125 144 142 136 123 128 109 90 90 80 71 70 75 86 123 140 149 137 123 127 196 106 143 162 127 19 46 39 45